| time (UTC) | temp F | wind direction | speed knots | gust knots | rain 1hr in | rain 24hr in | rain mn in | humidity % | barometer mb |
| 20260505041631 | 72 | 241 | 2.6 | 2.6 | 0.00 | 0.00 | 0.00 | 83 | 1011.0 |
| 20260505041128 | 72 | 214 | 4.3 | 5.2 | 0.00 | 0.00 | 0.00 | 83 | 1011.0 |
| 20260505040625 | 72 | 117 | 3.5 | 5.2 | 0.00 | 0.00 | 0.00 | 83 | 1010.7 |
| 20260505040122 | 72 | 195 | 3.5 | 4.3 | 0.00 | 0.00 | 0.00 | 83 | 1011.3 |
| 20260505035619 | 73 | 186 | 0.9 | 1.7 | 0.00 | 0.00 | 0.00 | 82 | 1011.0 |
| 20260505035115 | 73 | 243 | 1.7 | 2.6 | 0.00 | 0.00 | 0.00 | 82 | 1010.7 |
| 20260505034612 | 73 | 178 | 2.6 | 4.3 | 0.00 | 0.00 | 0.00 | 82 | 1010.7 |
| 20260505034109 | 73 | 222 | 1.7 | 2.6 | 0.00 | 0.00 | 0.00 | 81 | 1010.7 |
| 20260505033605 | 73 | 204 | 1.7 | 4.3 | 0.00 | 0.00 | 0.00 | 80 | 1011.0 |
| 20260505033104 | 74 | 188 | 3.5 | 4.3 | 0.00 | 0.00 | 0.00 | 80 | 1010.7 |
| 20260505032601 | 74 | 180 | 3.5 | 4.3 | 0.00 | 0.00 | 0.00 | 79 | 1010.7 |
| 20260505032057 | 74 | 184 | 0.9 | 1.7 | 0.00 | 0.00 | 0.00 | 79 | 1011.0 |
| 20260505031555 | 74 | 193 | 1.7 | 2.6 | 0.00 | 0.00 | 0.00 | 79 | 1010.7 |
| 20260505031051 | 74 | 157 | 0.9 | 1.7 | 0.00 | 0.00 | 0.00 | 79 | 1010.7 |
| 20260505030548 | 74 | 189 | 1.7 | 2.6 | 0.00 | 0.00 | 0.00 | 78 | 1010.7 |
| 20260505030044 | 75 | 232 | 0.9 | 1.7 | 0.00 | 0.00 | 0.00 | 78 | 1011.3 |
| 20260505025540 | 75 | 202 | 2.6 | 2.6 | 0.00 | 0.00 | 0.00 | 77 | 1010.7 |
| 20260505025039 | 75 | 209 | 4.3 | 5.2 | 0.00 | 0.00 | 0.00 | 77 | 1011.0 |
| 20260505024536 | 75 | 192 | 4.3 | 5.2 | 0.00 | 0.00 | 0.00 | 77 | 1011.0 |
| 20260505024033 | 75 | 177 | 4.3 | 7.8 | 0.00 | 0.00 | 0.00 | 77 | 1010.7 |
| 20260505023530 | 75 | 232 | 2.6 | 2.6 | 0.00 | 0.00 | 0.00 | 76 | 1010.7 |
| 20260505023027 | 75 | 218 | 0.9 | 1.7 | 0.00 | 0.00 | 0.00 | 76 | 1010.7 |
| 20260505022525 | 75 | 189 | 5.2 | 7.0 | 0.00 | 0.00 | 0.00 | 76 | 1010.7 |
| 20260505022022 | 75 | 184 | 2.6 | 2.6 | 0.00 | 0.00 | 0.00 | 75 | 1010.7 |
| 20260505021518 | 76 | 174 | 4.3 | 6.1 | 0.00 | 0.00 | 0.00 | 75 | 1010.7 |
| 20260505021014 | 76 | 190 | 0.9 | 1.7 | 0.00 | 0.00 | 0.00 | 75 | 1010.7 |
| 20260505020509 | 76 | 244 | 0.9 | 1.7 | 0.00 | 0.00 | 0.00 | 74 | 1010.7 |
| 20260505020006 | 76 | 207 | 3.5 | 6.1 | 0.00 | 0.00 | 0.00 | 74 | 1010.7 |
| 20260505015503 | 76 | 230 | 5.2 | 6.1 | 0.00 | 0.00 | 0.00 | 73 | 1010.7 |
| 20260505015000 | 76 | 254 | 2.6 | 4.3 | 0.00 | 0.00 | 0.00 | 73 | 1010.7 |
| 20260505014457 | 77 | 134 | 1.7 | 2.6 | 0.00 | 0.00 | 0.00 | 72 | 1010.3 |
| 20260505013954 | 77 | 210 | 1.7 | 1.7 | 0.00 | 0.00 | 0.00 | 72 | 1010.7 |
| 20260505013451 | 77 | 204 | 1.7 | 1.7 | 0.00 | 0.00 | 0.00 | 71 | 1010.7 |
| 20260505012949 | 77 | 190 | 1.7 | 2.6 | 0.00 | 0.00 | 0.00 | 70 | 1010.3 |
| 20260505012447 | 77 | 192 | 2.6 | 5.2 | 0.00 | 0.00 | 0.00 | 70 | 1010.7 |
| 20260505011943 | 77 | 216 | 4.3 | 6.1 | 0.00 | 0.00 | 0.00 | 69 | 1010.3 |
| 20260505011439 | 78 | 182 | 1.7 | 1.7 | 0.00 | 0.00 | 0.00 | 69 | 1010.0 |
| 20260505010936 | 78 | 174 | 2.6 | 4.3 | 0.00 | 0.00 | 0.00 | 68 | 1010.0 |
| 20260505010432 | 78 | 187 | 0.9 | 1.7 | 0.00 | 0.00 | 0.00 | 68 | 1010.3 |
| 20260505005928 | 78 | 216 | 3.5 | 4.3 | 0.00 | 0.00 | 0.00 | 67 | 1010.0 |
| 20260505005425 | 78 | 141 | 2.6 | 4.3 | 0.00 | 0.00 | 0.00 | 67 | 1010.3 |
| 20260505004923 | 79 | 171 | 1.7 | 1.7 | 0.00 | 0.00 | 0.00 | 66 | 1010.3 |
| 20260505004419 | 79 | 159 | 2.6 | 2.6 | 0.00 | 0.00 | 0.00 | 65 | 1010.3 |
| 20260505003916 | 79 | 178 | 4.3 | 6.1 | 0.00 | 0.00 | 0.00 | 65 | 1010.3 |
| 20260505003413 | 79 | 174 | 2.6 | 4.3 | 0.00 | 0.00 | 0.00 | 64 | 1010.0 |
| 20260505002909 | 80 | 162 | 0.9 | 0.9 | 0.00 | 0.00 | 0.00 | 64 | 1010.0 |
| 20260505002406 | 80 | 172 | 2.6 | 4.3 | 0.00 | 0.00 | 0.00 | 63 | 1010.0 |
| 20260505001904 | 80 | 151 | 4.3 | 6.1 | 0.00 | 0.00 | 0.00 | 63 | 1010.0 |
| 20260505001401 | 80 | 224 | 3.5 | 5.2 | 0.00 | 0.00 | 0.00 | 63 | 1010.0 |
| 20260505000859 | 80 | 202 | 4.3 | 6.1 | 0.00 | 0.00 | 0.00 | 62 | 1010.3 |
| 20260505000358 | 80 | 190 | 4.3 | 6.1 | 0.00 | 0.00 | 0.00 | 62 | 1010.3 |
| 20260504235853 | 80 | 234 | 5.2 | 7.0 | 0.00 | 0.00 | 0.00 | 61 | 1010.3 |
| 20260504235350 | 80 | 169 | 4.3 | 5.2 | 0.00 | 0.00 | 0.00 | 61 | 1010.3 |
| 20260504234846 | 81 | 209 | 4.3 | 6.1 | 0.00 | 0.00 | 0.00 | 61 | 1010.3 |
| 20260504234344 | 81 | 220 | 6.1 | 7.0 | 0.00 | 0.00 | 0.00 | 60 | 1010.3 |
| 20260504233840 | 80 | 170 | 2.6 | 4.3 | 0.00 | 0.00 | 0.00 | 61 | 1010.7 |
| 20260504233336 | 80 | 182 | 6.1 | 7.0 | 0.00 | 0.00 | 0.00 | 61 | 1010.7 |
| 20260504232833 | 81 | 253 | 2.6 | 4.3 | 0.00 | 0.00 | 0.00 | 60 | 1010.3 |
| 20260504232330 | 81 | 216 | 6.1 | 7.0 | 0.00 | 0.00 | 0.00 | 60 | 1010.7 |
| 20260504231827 | 81 | 172 | 4.3 | 6.1 | 0.00 | 0.00 | 0.00 | 59 | 1010.7 |
| 20260504231323 | 81 | 100 | 1.7 | 2.6 | 0.00 | 0.00 | 0.00 | 60 | 1010.7 |
| 20260504230819 | 81 | 213 | 2.6 | 4.3 | 0.00 | 0.00 | 0.00 | 59 | 1011.0 |
| 20260504230318 | 81 | 179 | 3.5 | 5.2 | 0.00 | 0.00 | 0.00 | 59 | 1010.7 |
| 20260504225816 | 81 | 207 | 4.3 | 5.2 | 0.00 | 0.00 | 0.00 | 59 | 1011.0 |
| 20260504225312 | 81 | 203 | 3.5 | 4.3 | 0.00 | 0.00 | 0.00 | 59 | 1011.0 |
| 20260504224809 | 81 | 104 | 6.1 | 7.8 | 0.00 | 0.00 | 0.00 | 59 | 1010.7 |
| 20260504224306 | 81 | 249 | 6.1 | 8.7 | 0.00 | 0.00 | 0.00 | 58 | 1011.0 |
| 20260504223803 | 81 | 180 | 6.1 | 7.0 | 0.00 | 0.00 | 0.00 | 59 | 1011.0 |
| 20260504223258 | 82 | 226 | 6.1 | 7.8 | 0.00 | 0.00 | 0.00 | 59 | 1011.0 |
| 20260504222755 | 82 | 236 | 5.2 | 7.0 | 0.00 | 0.00 | 0.00 | 58 | 1011.0 |
| 20260504222252 | 82 | 150 | 3.5 | 5.2 | 0.00 | 0.00 | 0.00 | 58 | 1011.0 |
| 20260504221750 | 82 | 217 | 3.5 | 4.3 | 0.00 | 0.00 | 0.00 | 59 | 1011.3 |
| 20260504221247 | 82 | 202 | 2.6 | 2.6 | 0.00 | 0.00 | 0.00 | 58 | 1011.3 |
| 20260504220743 | 83 | 264 | 3.5 | 4.3 | 0.00 | 0.00 | 0.00 | 57 | 1011.3 |
| 20260504220241 | 82 | 195 | 4.3 | 6.1 | 0.00 | 0.00 | 0.00 | 58 | 1011.3 |
| 20260504215738 | 82 | 228 | 6.1 | 7.8 | 0.00 | 0.00 | 0.00 | 58 | 1011.3 |
| 20260504215234 | 82 | 187 | 3.5 | 4.3 | 0.00 | 0.00 | 0.00 | 58 | 1011.3 |
| 20260504214730 | 82 | 176 | 2.6 | 4.3 | 0.00 | 0.00 | 0.00 | 59 | 1011.3 |
| 20260504214227 | 82 | 227 | 4.3 | 5.2 | 0.00 | 0.00 | 0.00 | 58 | 1011.7 |
| 20260504213724 | 82 | 174 | 3.5 | 6.1 | 0.00 | 0.00 | 0.00 | 58 | 1011.7 |
| 20260504213220 | 82 | 293 | 4.3 | 6.1 | 0.00 | 0.00 | 0.00 | 59 | 1011.7 |
| 20260504212717 | 82 | 205 | 2.6 | 2.6 | 0.00 | 0.00 | 0.00 | 58 | 1011.7 |
| 20260504212214 | 82 | 215 | 6.1 | 7.8 | 0.00 | 0.00 | 0.00 | 57 | 1011.7 |
| 20260504211711 | 82 | 188 | 6.1 | 8.7 | 0.00 | 0.00 | 0.00 | 58 | 1011.7 |
| 20260504211207 | 82 | 196 | 2.6 | 4.3 | 0.00 | 0.00 | 0.00 | 58 | 1012.0 |
| 20260504210705 | 82 | 216 | 2.6 | 4.3 | 0.00 | 0.00 | 0.00 | 58 | 1012.4 |
| 20260504210201 | 82 | 226 | 2.6 | 4.3 | 0.00 | 0.00 | 0.00 | 58 | 1012.0 |
| 20260504205659 | 83 | 165 | 5.2 | 7.8 | 0.00 | 0.00 | 0.00 | 57 | 1012.0 |
| 20260504205156 | 82 | 215 | 3.5 | 5.2 | 0.00 | 0.00 | 0.00 | 57 | 1012.0 |
| 20260504204654 | 82 | 156 | 2.6 | 5.2 | 0.00 | 0.00 | 0.00 | 58 | 1012.0 |
| 20260504204153 | 82 | 151 | 7.8 | 11.3 | 0.00 | 0.00 | 0.00 | 57 | 1012.4 |
| 20260504203651 | 82 | 161 | 5.2 | 7.0 | 0.00 | 0.00 | 0.00 | 57 | 1012.4 |
| 20260504203148 | 82 | 176 | 4.3 | 6.1 | 0.00 | 0.00 | 0.00 | 57 | 1012.7 |
| 20260504202643 | 83 | 137 | 7.8 | 13.9 | 0.00 | 0.00 | 0.00 | 57 | 1012.7 |
| 20260504202140 | 82 | 205 | 4.3 | 6.1 | 0.00 | 0.00 | 0.00 | 58 | 1012.7 |
| 20260504201637 | 82 | 219 | 5.2 | 8.7 | 0.00 | 0.00 | 0.00 | 58 | 1012.7 |
| 20260504201135 | 82 | 193 | 5.2 | 7.0 | 0.00 | 0.00 | 0.00 | 58 | 1013.1 |
| 20260504200632 | 82 | 285 | 6.1 | 8.7 | 0.00 | 0.00 | 0.00 | 57 | 1013.1 |
| 20260504200128 | 82 | 181 | 6.1 | 8.7 | 0.00 | 0.00 | 0.00 | 57 | 1013.5 |
| 20260504195624 | 82 | 271 | 1.7 | 2.6 | 0.00 | 0.00 | 0.00 | 58 | 1013.5 |
| 20260504195121 | 83 | 229 | 3.5 | 4.3 | 0.00 | 0.00 | 0.00 | 56 | 1013.5 |
| 20260504194618 | 82 | 198 | 3.5 | 5.2 | 0.00 | 0.00 | 0.00 | 58 | 1013.5 |
| 20260504194113 | 82 | 192 | 4.3 | 7.0 | 0.00 | 0.00 | 0.00 | 56 | 1013.8 |
| 20260504193610 | 82 | 162 | 2.6 | 5.2 | 0.00 | 0.00 | 0.00 | 58 | 1013.5 |
| 20260504193109 | 82 | 206 | 6.1 | 7.8 | 0.00 | 0.00 | 0.00 | 57 | 1013.8 |
| 20260504192606 | 81 | 215 | 6.1 | 7.8 | 0.00 | 0.00 | 0.00 | 58 | 1013.5 |
| 20260504192104 | 81 | 205 | 5.2 | 6.1 | 0.00 | 0.00 | 0.00 | 59 | 1013.8 |
| 20260504191602 | 81 | 226 | 7.0 | 7.8 | 0.00 | 0.00 | 0.00 | 56 | 1014.1 |
| 20260504191058 | 82 | 142 | 4.3 | 5.2 | 0.00 | 0.00 | 0.00 | 56 | 1013.8 |
| 20260504190554 | 81 | 275 | 5.2 | 7.8 | 0.00 | 0.00 | 0.00 | 58 | 1014.1 |
| 20260504190050 | 81 | 220 | 2.6 | 2.6 | 0.00 | 0.00 | 0.00 | 58 | 1014.1 |
| 20260504185547 | 81 | 231 | 1.7 | 4.3 | 0.00 | 0.00 | 0.00 | 58 | 1014.1 |
| 20260504185044 | 81 | 173 | 4.3 | 6.1 | 0.00 | 0.00 | 0.00 | 58 | 1013.8 |
| 20260504184539 | 80 | 221 | 1.7 | 1.7 | 0.00 | 0.00 | 0.00 | 59 | 1014.1 |
| 20260504184035 | 81 | 85 | 4.3 | 6.1 | 0.00 | 0.00 | 0.00 | 58 | 1014.1 |
| 20260504183532 | 82 | 217 | 4.3 | 6.1 | 0.00 | 0.00 | 0.00 | 57 | 1014.5 |
| 20260504183030 | 80 | 201 | 3.5 | 5.2 | 0.00 | 0.00 | 0.00 | 59 | 1014.5 |
| 20260504182527 | 79 | 166 | 3.5 | 4.3 | 0.00 | 0.00 | 0.00 | 59 | 1014.5 |
| 20260504182024 | 80 | 224 | 4.3 | 6.1 | 0.00 | 0.00 | 0.00 | 58 | 1014.8 |
| 20260504181521 | 79 | 138 | 7.8 | 9.6 | 0.00 | 0.00 | 0.00 | 61 | 1014.8 |
| 20260504181020 | 79 | 215 | 7.8 | 11.3 | 0.00 | 0.00 | 0.00 | 60 | 1014.8 |
| 20260504180518 | 80 | 197 | 2.6 | 4.3 | 0.00 | 0.00 | 0.00 | 60 | 1014.5 |
| 20260504180017 | 80 | 192 | 2.6 | 4.3 | 0.00 | 0.00 | 0.00 | 61 | 1014.8 |
| 20260504175513 | 79 | 246 | 8.7 | 9.6 | 0.00 | 0.00 | 0.00 | 61 | 1014.8 |
| 20260504175011 | 79 | 183 | 2.6 | 4.3 | 0.00 | 0.00 | 0.00 | 62 | 1014.8 |
| 20260504174508 | 78 | 191 | 6.1 | 8.7 | 0.00 | 0.00 | 0.00 | 62 | 1015.2 |
| 20260504174005 | 78 | 226 | 7.8 | 8.7 | 0.00 | 0.00 | 0.00 | 61 | 1015.5 |
| 20260504173502 | 77 | 221 | 3.5 | 8.7 | 0.00 | 0.00 | 0.00 | 64 | 1015.5 |
| 20260504172959 | 78 | 194 | 7.0 | 7.8 | 0.00 | 0.00 | 0.00 | 63 | 1015.5 |
| 20260504172455 | 77 | 157 | 2.6 | 5.2 | 0.00 | 0.00 | 0.00 | 65 | 1015.8 |
| 20260504171951 | 77 | 208 | 3.5 | 4.3 | 0.00 | 0.00 | 0.00 | 65 | 1015.5 |
| 20260504171449 | 76 | 208 | 4.3 | 5.2 | 0.00 | 0.00 | 0.00 | 66 | 1015.8 |
| 20260504170945 | 75 | 259 | 3.5 | 5.2 | 0.00 | 0.00 | 0.00 | 67 | 1015.8 |
| 20260504170442 | 76 | 208 | 5.2 | 7.0 | 0.00 | 0.00 | 0.00 | 67 | 1015.8 |
| 20260504160402 | 75 | 234 | 4.3 | 6.1 | 0.00 | 0.00 | 0.00 | 67 | 1016.5 |
| 20260504150826 | 73 | 192 | 4.3 | 5.2 | 0.00 | 0.00 | 0.00 | 68 | 1016.5 |
| 20260504150322 | 72 | 183 | 4.3 | 5.2 | 0.00 | 0.00 | 0.00 | 69 | 1016.9 |
| 20260504141252 | 68 | 116 | 2.6 | 4.3 | 0.00 | 0.00 | 0.00 | 72 | 1016.9 |
| 20260504140749 | 68 | 204 | 3.5 | 4.3 | 0.00 | 0.00 | 0.00 | 73 | 1016.9 |
| 20260504140244 | 68 | 191 | 4.3 | 4.3 | 0.00 | 0.00 | 0.00 | 73 | 1017.2 |
| 20260504130713 | 63 | 217 | 1.7 | 1.7 | 0.00 | 0.00 | 0.00 | 81 | 1016.9 |
| 20260504130209 | 62 | 232 | 0.0 | 0.9 | 0.00 | 0.00 | 0.00 | 82 | 1016.9 |
| 20260504120133 | 59 | 234 | 0.9 | 1.7 | 0.00 | 0.00 | 0.00 | 86 | 1016.2 |
| 20260504110600 | 59 | 174 | 0.9 | 1.7 | 0.00 | 0.00 | 0.00 | 87 | 1016.9 |
| 20260504100522 | 60 | 229 | 0.9 | 0.9 | 0.00 | 0.00 | 0.00 | 83 | 1016.5 |
| 20260504081916 | 61 | 229 | 0.0 | 0.9 | 0.00 | 0.00 | 0.00 | 80 | 1017.2 |
| 20260504081413 | 62 | 248 | 0.9 | 0.9 | 0.00 | 0.00 | 0.00 | 79 | 1017.5 |
| 20260504080908 | 62 | 246 | 0.0 | 0.0 | 0.00 | 0.00 | 0.00 | 79 | 1017.2 |
| 20260504080405 | 62 | 233 | 0.0 | 0.0 | 0.00 | 0.00 | 0.00 | 79 | 1017.2 |
| 20260504070333 | 64 | 210 | 0.9 | 0.9 | 0.00 | 0.00 | 0.00 | 73 | 1018.2 |
| 20260504050721 | 66 | 236 | 1.7 | 2.6 | 0.00 | 0.00 | 0.00 | 67 | 1018.9 |
| 20260504050218 | 66 | 121 | 2.6 | 2.6 | 0.00 | 0.00 | 0.00 | 66 | 1019.3 |
| 20260504045715 | 66 | 146 | 3.5 | 5.2 | 0.00 | 0.00 | 0.00 | 65 | 1019.3 |
| 20260504045215 | 66 | 242 | 2.6 | 4.3 | 0.00 | 0.00 | 0.00 | 66 | 1019.3 |
| 20260504044714 | 66 | 160 | 2.6 | 2.6 | 0.00 | 0.00 | 0.00 | 66 | 1019.3 |
| 20260504044210 | 66 | 197 | 2.6 | 5.2 | 0.00 | 0.00 | 0.00 | 66 | 1019.3 |
| 20260504043708 | 66 | 195 | 1.7 | 1.7 | 0.00 | 0.00 | 0.00 | 65 | 1019.3 |
| 20260504043204 | 66 | 127 | 2.6 | 2.6 | 0.00 | 0.00 | 0.00 | 65 | 1019.3 |
| 20260504042702 | 66 | 254 | 0.9 | 1.7 | 0.00 | 0.00 | 0.00 | 65 | 1019.3 |
| 20260504042158 | 67 | 216 | 0.9 | 1.7 | 0.00 | 0.00 | 0.00 | 64 | 1019.7 |